Regional Weather Roundup
Issued by NWS

Home | Current Version | Previous Version | Text Only | Print | Product List | Glossary On
Versions: 1 2 3 4 5 6 7 8 9 10 11 12 13 14 15 16 17 18 19 20 21 22 23 24 25 26 27 28 29 30 31 32 33 34 35 36 37 38 39 40 41 42 43 44 45 46 47 48 49 50
000
ASUS44 KFWD 012203
RWRTX
NORTH TEXAS HOURLY WEATHER ROUNDUP
NATIONAL WEATHER SERVICE FORT WORTH TX
500 PM CDT WED JUL 01 2015

NOTE: "FAIR" INDICATES FEW OR NO CLOUDS BELOW 12,000 FEET WITH NO
SIGNIFICANT WEATHER AND/OR OBSTRUCTIONS TO VISIBILITY.

TXZ118-119-012300-
DALLAS/FORT WORTH METROPLEX

CITY           SKY/WX    TMP DP  RH WIND       PRES   REMARKS
DFW AIRPORT    PTSUNNY   93  68  43 S18G25    29.93F HX  97
DALLAS LOVE    PTSUNNY   94  66  39 SW15G25   29.93F HX  97
FTW MEACHAM    MOSUNNY   92  68  45 S18       29.93F HX  96
DAL-EXECUTIVE  MOSUNNY   88  69  53 S9G20     29.95F HX  92
FTW-ALLIANCE   MOSUNNY   93  68  43 SW10G21   29.93F HX  97
FTW-NAS-JRB    MOSUNNY   93  67  42 S20G26    29.94F HX  96
FTW-SPINKS     SUNNY     93  66  40 S14G20    29.97F HX  96
ARLINGTON      MOSUNNY   93  66  40 S15G24    29.94F HX  96
GRAND PRAIRIE  SUNNY     93  68  43 S15G21    29.96F HX  97
ADDISON        PTSUNNY   91  66  43 S17       29.95F HX  94
MESQUITE       MOSUNNY   91  70  49 S12G20    29.96F HX  97
LANCASTER      MOSUNNY   91  70  50 S16G23    29.97S HX  96
$$

TXZ091>094-102>105-117-120-121-131>134-012300-
NORTH CENTRAL TEXAS

CITY           SKY/WX    TMP DP  RH WIND       PRES   REMARKS
SHRMAN/DENISON MOSUNNY   93  71  48 SW21      29.94F HX 100
GAINESVILLE    MOSUNNY   91  69  48 S18G25    29.94F HX  95
BOWIE          SUNNY     88  64  45 S16G22    29.93F
BRIDGEPORT     MOSUNNY   92  69  46 S13G18    29.95F HX  97
DECATUR        SUNNY     92  65  40 SW14G20   29.95F HX  94
DENTON         MOSUNNY   93  70  46 S16G23    29.93F HX  99
MCKINNEY       PTSUNNY   93  69  45 S22G29    29.92F HX  98
TERRELL        MOSUNNY   90  72  55 S15G23    29.96F HX  97
WAXAHACHIE     MOSUNNY   91  73  56 S13       29.98S HX  99
CLEBURNE       MOSUNNY   91  70  49 S15       29.98F HX  97
$$

TXZ083>090-098>101-113>116-127>130-139>142-154-155-012300-
WESTERN NORTH TEXAS

CITY           SKY/WX    TMP DP  RH WIND       PRES   REMARKS
WICHITA FALLS  MOSUNNY   93  68  43 S22G28    29.89F HX  97
WF-KICKAPOO    SUNNY     95  65  37 S15       29.91F HX  97
VERNON         SUNNY     99  55  22 SW17G24   29.90F HX  97
ABILENE        PTSUNNY   90  64  42 S15       29.98F HX  91
ABILENE-DYESS  SUNNY     89  68  49 S13G22    29.97F HX  92
BRECKENRIDGE   MOSUNNY   93  62  35 S17       29.96S HX  94
GRAHAM         SUNNY     94  67  42 S10G17    29.93F HX  97
MINERAL WELLS  MOSUNNY   91  67  44 S16       29.94F HX  94
STEPHENVILLE   MOSUNNY   90  65  43 S12G17    30.00F HX  92
COMANCHE       SUNNY     91  67  44 S9G21     29.99F HX  93
COLEMAN        MOSUNNY   91  66  44 S13G18    30.00F HX  94
BRADY          SUNNY     90  63  40 N12       30.00F HX  90
$$

TXZ143>147-156>162-174-175-012300-
CENTRAL TEXAS

CITY           SKY/WX    TMP DP  RH WIND       PRES   REMARKS
WACO           PTSUNNY   90  72  55 S20       29.98S HX  97
WACO-TSTC      SUNNY     90  73  58 S13       29.99S HX  98
WACO-MCGREGOR  MOSUNNY   90  72  55 S17G23    29.99S HX  96
HILLSBORO      PTSUNNY   89  68  49 S15       29.98S HX  92
CORSICANA      MOSUNNY   89  72  56 MISG      29.99F HX  96
MEXIA          PTSUNNY   82  71  67 S10G17    30.00S
HEARNE         MOSUNNY   82  73  74 S30G39    30.06R
CAMERON        PTSUNNY   83  74  74 S21G31    30.04R
TEMPLE         MOSUNNY   86  70  58 S21G26    30.01R HX  90
KILLEEN        PTSUNNY   87  70  56 S21       30.01R HX  91
KILLEEN-SKYLRK PTSUNNY   90  70  51 S17G25    30.00S HX  95
FORT HOOD      MOSUNNY   89  68  50 SE17      29.99S HX  92
GATESVILLE     MOSUNNY   90  70  51 S14       30.01S HX  95
HAMILTON       MOSUNNY   91  65  41 S13G18    30.00F HX  92
$$

TXZ095>097-106>112-122>126-135>138-148>153-164>167-012300-
EAST TEXAS

CITY           SKY/WX    TMP DP  RH WIND       PRES   REMARKS
PARIS          MOSUNNY   91  66  43 SW24G30   29.93F HX  94
SULPHUR SPRNGS SUNNY     91  69  47 SW20G25   29.98S HX  95
GILMER         MOSUNNY   89  71  56 S15G21    29.98S HX  95
MINEOLA        MOSUNNY   90  72  55 S13       29.98S HX  96
TYLER          PTSUNNY   90  71  53 S15       29.99F HX  96
LONGVIEW       MOSUNNY   94  73  50 SW13      29.98F HX 103
MARSHALL       PTSUNNY   94  74  53 S8        30.00F HX 104
ATHENS         PTSUNNY   88  72  58 S5        29.98S HX  94
PALESTINE      MOSUNNY   91  74  57 S14       30.01R HX 100
JACKSONVILLE   MOSUNNY   88  71  56 S7        30.03F HX  94
HENDERSON      MOSUNNY   88  71  57 S8        30.00F HX  94
NACOGDOCHES    PTSUNNY   86  72  62 S10       30.02F HX  92
LUFKIN         MOSUNNY   84  73  69 S13       30.03F HX  90
$$

SUPPLEMENTAL OBSERVATIONS (CENTRAL)

CITY           SKY/WX    TMP DP  RH WIND       PRES   REMARKS
$$

SUPPLEMENTAL OBSERVATIONS (WEST)

CITY           SKY/WX    TMP DP  RH WIND       PRES   REMARKS
$$

SUPPLEMENTAL OBSERVATIONS (EAST)

CITY           SKY/WX    TMP DP  RH WIND       PRES   REMARKS
$$

SUPPLEMENTAL OBSERVATIONS ARE A COLLECTION OF AUTOMATED INSTRUMENTS
THAT ARE MAINTAINED BY A VARIETY OF FEDERAL AND STATE AGENCIES.
CERTAIN ELEMENTS...SUCH AS HUMIDITY VALUES AND SUSTAINED WIND
SPEEDS...MAY BE APPROXIMATED.



USA.gov is the U.S. government's official web portal to all federal, state and local government web resources and services.